TimeEST,TemperatureF,Dew PointF,Humidity,Sea Level PressureIn,VisibilityMPH,Wind Direction,Wind SpeedMPH,Gust SpeedMPH,PrecipitationIn,Events,Conditions,WindDirDegrees,DateUTC
12:54 AM,-0.0,-2.9,88,29.77,-9999.0,North,20.7,38.0,0.11,,Unknown,360,2014-01-03 05:54:00
1:54 AM,-0.0,-4.0,83,29.76,-9999.0,North,18.4,32.2,0.05,,Unknown,350,2014-01-03 06:54:00
2:54 AM,-0.9,-4.0,87,29.71,-9999.0,North,21.9,38.0,0.05,,Unknown,360,2014-01-03 07:54:00
3:54 AM,-0.0,-4.0,83,29.69,-9999.0,North,20.7,33.4,0.05,,Unknown,360,2014-01-03 08:54:00
4:54 AM,-0.0,-2.9,88,29.68,-9999.0,North,21.9,31.1,0.07,,Unknown,360,2014-01-03 09:54:00
5:54 AM,-0.0,-4.0,83,29.72,-9999.0,North,20.7,40.3,0.07,,Unknown,350,2014-01-03 10:54:00
6:54 AM,-0.0,-2.9,88,29.78,-9999.0,North,20.7,31.1,0.05,,Unknown,350,2014-01-03 11:54:00
7:54 AM,1.0,-2.0,87,29.81,-9999.0,North,18.4,32.2,0.05,,Unknown,350,2014-01-03 12:54:00
8:54 AM,1.9,-0.9,88,29.84,-9999.0,North,16.1,34.5,0.02,,Unknown,350,2014-01-03 13:54:00
9:54 AM,3.9,-0.0,84,29.88,-9999.0,NNW,18.4,32.2,N/A,,Unknown,340,2014-01-03 14:54:00
10:54 AM,6.1,1.0,80,29.91,-9999.0,NNW,20.7,28.8,N/A,,Unknown,340,2014-01-03 15:54:00
11:54 AM,9.0,1.0,70,29.93,-9999.0,NNW,17.3,27.6,N/A,,Unknown,340,2014-01-03 16:54:00
12:54 PM,10.0,1.0,67,29.97,-9999.0,NNW,13.8,24.2,N/A,,Unknown,330,2014-01-03 17:54:00
1:54 PM,10.0,-0.0,64,30.01,-9999.0,NW,13.8,24.2,N/A,,Unknown,320,2014-01-03 18:54:00
2:54 PM,10.9,-0.0,61,30.06,-9999.0,NW,17.3,27.6,N/A,,Unknown,310,2014-01-03 19:54:00
3:54 PM,10.0,-2.0,58,30.13,-9999.0,NW,15.0,29.9,N/A,,Unknown,320,2014-01-03 20:54:00
4:54 PM,7.0,-6.0,55,30.18,-9999.0,NW,15.0,24.2,N/A,,Unknown,310,2014-01-03 21:54:00
5:15 PM,37.4,33.8,87,-9999,-9999.0,North,-9999.0,-,N/A,,Unknown,0,2014-01-03 22:15:00
5:54 PM,5.0,-11.0,48,30.22,-9999.0,NNW,20.7,34.5,N/A,,Unknown,330,2014-01-03 22:54:00
6:54 PM,3.9,-9.9,53,30.29,-9999.0,NW,12.7,25.3,N/A,,Unknown,320,2014-01-03 23:54:00
7:54 PM,1.9,-9.9,58,30.34,-9999.0,NW,15.0,21.9,N/A,,Unknown,320,2014-01-04 00:54:00
8:54 PM,1.0,-11.9,55,30.37,-9999.0,NW,10.4,19.6,N/A,,Unknown,310,2014-01-04 01:54:00
9:54 PM,-0.9,-11.9,60,30.38,-9999.0,WNW,13.8,-,N/A,,Unknown,300,2014-01-04 02:54:00
10:54 PM,-0.9,-13.0,57,30.39,-9999.0,NW,15.0,-,N/A,,Unknown,310,2014-01-04 03:54:00
11:54 PM,-2.9,-13.0,62,30.40,-9999.0,WNW,11.5,-,N/A,,Unknown,290,2014-01-04 04:54:00